Fort Myers, FL

2:40 PM EST on December 11, 2017 (GMT -0500)
Page

Weather History for KFMY - February, 2015

Change the Weather History Date:

Monday, February 2, 2015

  Actual Average Record
Temperature  
Mean Temperature 67 °F 65 °F  
Max Temperature 76 °F 76 °F 88 °F (1990)
Min Temperature 57 °F 55 °F 34 °F (1909)
Degree Days  
Heating Degree Days 0 3  
Month to date heating degree days 0 6  
Since 1 July heating degree days 144 207  
Cooling Degree Days 2 3  
Month to date cooling degree days 3 6  
Year to date cooling degree days 103 89  
Growing Degree Days 15 (Base 50)    
Moisture  
Dew Point 61 °F    
Average Humidity 85    
Maximum Humidity 100    
Minimum Humidity 64    
Precipitation  
Precipitation 0.01 in 0.08 in 2.75 in (1998)
Month to date precipitation 0.01 0.15  
Year to date precipitation 0.58 2.09  
Sea Level Pressure  
Sea Level Pressure 30.03 in    
Wind  
Wind Speed 8 mph (WSW)    
Max Wind Speed 17 mph    
Max Gust Speed 23 mph    
Visibility 9 miles    
Events Rain    
T = Trace of Precipitation, MM = Missing Value Source: NWS Daily Summary

Daily Weather History Graph

Daily Weather History Graph

Search for Another Location

Airport or City:

Trip Planner

Search our weather history database for the weather conditions in past years. The results will help you decide how hot, cold, wet, or windy it might be!

Date:

Astronomy

Feb. 02, 2015 Rise Set
Actual Time 7:11 AM EST 6:10 PM EST
Civil Twilight 6:47 AM EST 6:34 PM EST
Nautical Twilight 6:20 AM EST 7:02 PM EST
Astronomical Twilight 5:52 AM EST 7:29 PM EST
Moon 5:19 PM EST (2/2) 6:01 AM EST (2/2)
Length of Visible Light 11h 46m
Length of Day
10h 58m
Waxing Gibbous, 99% of the Moon is Illuminated
Feb 2
Waxing Gibbous
Feb 3
Full
Feb 11
Last Quarter
Feb 18
New
Feb 25
First Quarter

Hourly Weather History & Observations

Time (EST) Temp. Dew Point Humidity Pressure Visibility Wind Dir Wind Speed Gust Speed Precip Events Conditions
12:53 AM 61.0 °F 57.0 °F 87% 30.04 in 10.0 mi SE 3.5 mph - N/A   Clear
1:53 AM 60.1 °F 57.0 °F 90% 30.04 in 10.0 mi Calm Calm - N/A   Clear
2:53 AM 61.0 °F 57.9 °F 90% 30.01 in 10.0 mi SSE 4.6 mph - N/A   Clear
3:53 AM 61.0 °F 59.0 °F 93% 30.01 in 10.0 mi South 3.5 mph - N/A   Clear
4:53 AM 62.1 °F 60.1 °F 93% 30.00 in 10.0 mi South 5.8 mph - N/A   Clear
5:53 AM 61.0 °F 60.1 °F 97% 30.00 in 10.0 mi South 3.5 mph - N/A   Clear
6:53 AM 61.0 °F 60.1 °F 97% 30.01 in 9.0 mi South 3.5 mph - N/A   Partly Cloudy
7:53 AM 63.0 °F 62.1 °F 97% 30.02 in 9.0 mi SSE 4.6 mph - N/A   Clear
8:53 AM 69.1 °F 64.9 °F 87% 30.03 in 10.0 mi South 9.2 mph - N/A   Clear
9:53 AM 73.0 °F 66.9 °F 81% 30.04 in 10.0 mi SSW 13.8 mph - N/A   Scattered Clouds
10:53 AM 73.9 °F 66.9 °F 79% 30.05 in 10.0 mi SW 12.7 mph - N/A   Overcast
11:53 AM 73.9 °F 66.9 °F 79% 30.04 in 10.0 mi SW 12.7 mph - N/A   Overcast
12:41 PM 71.1 °F 68.0 °F 90% 30.03 in 6.0 mi West 15.0 mph - 0.00 in Rain Light Rain
12:48 PM 69.8 °F 68.0 °F 94% 30.03 in 4.0 mi WSW 15.0 mph - 0.01 in Rain Light Rain
12:53 PM 70.0 °F 68.0 °F 93% 30.04 in 6.0 mi WSW 13.8 mph - 0.01 in Rain Light Rain
1:53 PM 70.0 °F 66.0 °F 87% 30.00 in 10.0 mi SW 10.4 mph - 0.00 in   Overcast
2:53 PM 73.9 °F 64.9 °F 73% 29.98 in 10.0 mi WSW 12.7 mph - N/A   Mostly Cloudy
3:53 PM 73.9 °F 62.1 °F 66% 29.99 in 10.0 mi WSW 11.5 mph - N/A   Mostly Cloudy
4:39 PM 69.1 °F 64.9 °F 87% 30.01 in 5.0 mi WNW 13.8 mph - 0.00 in Rain Light Rain
4:53 PM 68.0 °F 66.0 °F 93% 30.02 in 5.0 mi WNW 9.2 mph - 0.00 in   Overcast
5:08 PM 66.9 °F 66.0 °F 97% 30.01 in 10.0 mi WNW 8.1 mph - N/A   Overcast
5:37 PM 68.0 °F 64.9 °F 90% 30.01 in 10.0 mi West 5.8 mph - N/A   Overcast
5:53 PM 68.0 °F 64.0 °F 87% 30.03 in 10.0 mi WNW 6.9 mph - N/A   Overcast
6:27 PM 66.9 °F 63.0 °F 87% 30.04 in 10.0 mi NW 8.1 mph - N/A   Scattered Clouds
6:53 PM 64.9 °F 57.9 °F 78% 30.04 in 10.0 mi WNW 5.8 mph - N/A   Clear
7:53 PM 63.0 °F 54.0 °F 72% 30.07 in 10.0 mi NNW 4.6 mph - N/A   Clear
8:53 PM 61.0 °F 48.9 °F 64% 30.09 in 10.0 mi NNW 6.9 mph - N/A   Clear
9:53 PM 60.1 °F 51.1 °F 72% 30.11 in 10.0 mi NNW 9.2 mph - N/A   Clear
10:53 PM 57.9 °F 52.0 °F 81% 30.12 in 10.0 mi North 10.4 mph - N/A   Clear
11:53 PM 57.0 °F 48.9 °F 74% 30.12 in 10.0 mi North 11.5 mph - N/A   Clear